Simultaneous Nadir Overpasses (SNOs) Predictions

Prediction of SNOs between AQUA and METOP-A Satellite Orbit:

Table of predicted SNOs for the next 14.0 days since TLE Epoch: 5/22/2020
Index Date (AQUA) Time (AQUA) Lat,Lon (AQUA) SZA (AQUA ) Date (METOP-A) Time (METOP-A) Lat,Lon (METOP-A) SZA (METOP-A ) Distance(km) Time Diff (sec)
1 05/24/2020 13:59:02 76.21, -41.60 55.50 05/24/2020 13:58:37 76.23, -41.63 55.53 2.46 25
2 05/24/2020 14:48:29 -76.26, 125.88 124.45 05/24/2020 14:49:18 -76.27, 125.82 124.45 1.71 49
3 05/27/2020 09:33:17 76.21, 24.82 55.03 05/27/2020 09:32:59 76.23, 24.74 55.06 3.21 18
4 05/27/2020 10:22:45 -76.30,-167.83 124.88 05/27/2020 10:23:40 -76.27,-167.81 124.92 3.66 55
5 05/30/2020 04:17:57 -75.87, -75.32 125.79 05/30/2020 04:16:49 -75.83, -77.57 125.69 61.40 68
6 05/30/2020 05:07:31 76.22, 91.23 54.61 05/30/2020 05:07:20 76.23, 91.09 54.63 3.93 11
7 05/30/2020 05:56:59 -76.31,-101.40 125.30 05/30/2020 05:58:00 -76.32,-101.28 125.31 3.37 61
8 06/01/2020 23:52:18 -76.17, -9.81 125.83 06/01/2020 23:51:05 -76.11, -10.30 125.84 14.92 73
9 06/02/2020 00:41:47 76.29, 157.47 54.30 06/02/2020 00:41:41 76.28, 157.60 54.29 3.55 6
10 06/02/2020 01:31:14 -76.31, -34.98 125.67 06/02/2020 01:32:22 -76.32, -34.93 125.68 1.69 68
11 06/04/2020 19:26:34 -76.23, 56.44 126.08 06/04/2020 19:25:24 -76.25, 56.51 126.06 2.62 70
12 06/04/2020 20:16:01 76.26,-136.00 53.94 06/04/2020 20:16:03 76.28,-136.05 53.97 2.78 2




NCC Satellite Simultaneous Nadir Overpasses (SNOs) Prediction Service
